Zurück zum Katalog

SDA_1670

AktivMilitärPO
NORAD 65980·PAYLOAD·🇺🇸 United States

Gestartet Oct 15, 2025 von Vandenberg Space Force Base

Loading…

Nächste Überflüge (nächste 24 Stunden)

TLE

AktuellSource: Space-Track

Epoche: Sep 14, 2026, 15:04 UTC

1 65980U 25230G   26257.62829918  .00000046  00000-0  33742-4 0  9990
2 65980  81.2987 130.0759 0000772  56.1871 303.9356 13.78094210 46109

Verfolge SDA_1670 in Echtzeit mit AllMySat

Download on the App Store